Wind_Speed
18 17 16 16 17 15 16 17 16 15 15 14 13 12 11 10 10 9 9 9 9 9 8 7 6 6 7 8 8 8 8 8 9 8 9 9 9 9 8 9 10 10 10 9 9 8 8 8 8
17 17 16 16 17 16 18 17 16 16 15 15 14 13 12 11 10 10 9 9 9 9 8 8 8 8 8 8 9 8 8 8 8 8 8 8 8 8 8 9 9 9 9 8 8 7 7 8 8
17 17 16 17 18 19 18 17 17 17 16 15 14 13 12 11 11 10 10 10 10 9 9 9 9 9 8 8 8 8 8 7 7 7 7 7 8 8 8 8 8 8 8 8 7 7 7 7 7
16 16 17 18 19 19 18 17 17 17 16 15 15 14 12 12 13 12 12 11 11 10 10 10 10 10 9 8 8 7 7 7 6 6 6 7 7 7 7 8 8 7 7 7 7 7 6 7 6
15 16 18 18 18 18 18 18 18 17 16 16 16 15 14 14 14 14 13 12 12 12 12 11 11 10 10 9 8 8 7 7 7 7 7 7 7 7 7 7 7 7 7 7 7 6 6 6 6
15 16 17 18 17 18 18 18 17 16 16 16 16 16 15 15 14 14 13 13 12 12 12 12 11 11 10 10 9 8 8 8 7 7 7 7 7 6 6 7 7 6 6 6 7 6 6 6 5
14 16 18 17 16 17 17 17 17 17 17 17 17 16 16 15 15 15 14 14 13 12 12 12 11 11 11 10 10 8 8 7 7 7 7 7 7 7 7 6 6 6 6 6 6 5 5 4 4
14 15 16 15 14 15 16 16 16 17 17 17 17 16 15 15 15 15 15 14 14 13 11 11 11 11 11 10 9 8 8 8 7 6 6 6 7 6 6 6 6 6 6 5 5 4 4 4 4
14 15 16 15 14 14 15 15 15 17 17 17 16 16 15 15 15 14 14 14 14 13 13 12 11 10 10 10 9 9 8 7 7 6 6 6 6 6 6 6 5 5 5 4 4 4 4 4 4
14 14 15 14 14 14 14 15 16 16 16 16 16 16 15 15 14 14 13 13 13 13 13 13 12 11 10 10 9 8 7 7 6 6 5 6 6 6 6 6 5 5 5 5 4 4 4 4 3
13 14 13 13 13 13 14 14 15 16 15 15 16 16 15 15 14 14 13 13 13 13 12 12 11 11 10 10 9 8 7 6 6 5 4 5 5 6 5 5 5 5 4 4 4 3 3 3 3
11 12 12 13 13 14 13 14 15 15 14 14 14 14 14 13 13 13 13 12 12 12 12 11 11 10 10 10 9 8 6 6 6 5 5 5 5 6 5 5 5 4 4 4 3 3 3 2 2
10 10 10 11 12 12 13 14 14 14 14 14 14 13 13 12 12 13 13 12 12 12 12 11 11 10 10 10 9 8 6 5 5 5 5 5 5 5 4 4 4 4 4 4 3 2 2 1 1
8 8 8 9 10 11 12 13 12 13 14 14 13 13 12 11 11 12 12 11 11 11 11 11 11 10 10 9 9 8 6 5 5 5 5 5 5 5 4 5 4 3 3 3 2 2 2 1 1
7 6 7 6 8 10 11 13 12 12 12 12 13 12 10 10 10 10 10 10 10 10 10 11 10 10 10 10 9 8 6 5 5 5 5 5 5 4 4 4 3 3 3 3 2 2 2 3 3
5 6 6 6 6 8 10 13 13 13 12 12 12 12 10 9 9 9 9 8 8 9 9 10 10 10 10 9 9 9 8 6 5 4 4 4 4 4 4 3 2 2 1 2 2 2 3 4 5
4 4 3 3 4 7 9 12 13 13 13 12 12 12 10 9 9 9 8 7 7 8 8 9 9 9 9 9 8 8 8 7 6 5 4 4 4 3 3 2 2 1 1 1 2 2 4 5 6
2 0 2 4 4 6 9 10 12 13 13 13 12 12 11 10 10 9 7 6 6 7 7 8 8 8 9 8 8 8 8 8 7 5 4 3 3 3 3 2 2 2 1 1 1 2 3 4 5
4 3 3 4 6 8 8 10 11 11 11 12 13 13 12 11 11 8 6 6 6 6 6 6 7 7 7 7 8 7 7 7 7 6 6 4 4 3 3 2 2 2 2 1 1 2 3 3 3
5 5 5 5 6 8 9 10 11 11 10 11 12 12 12 10 10 8 6 5 5 5 5 5 6 6 6 6 6 6 5 5 6 6 6 5 4 4 3 2 1 1 1 2 2 2 3 4 4
6 5 5 7 8 9 10 10 9 10 10 10 11 11 10 10 10 9 7 6 6 5 5 5 5 5 5 4 4 5 5 4 4 4 5 5 4 4 4 3 2 2 2 2 3 3 3 4 4
8 8 7 8 9 10 10 10 10 10 10 11 10 11 10 11 11 9 7 6 6 5 5 5 5 5 4 4 3 3 3 4 3 3 4 4 4 3 3 3 3 3 3 4 3 4 4 5 6
10 10 10 10 10 10 11 12 11 11 10 12 12 11 12 11 11 10 8 7 6 6 6 5 5 5 4 4 3 2 2 2 3 3 4 4 4 3 4 4 4 4 4 4 4 5 5 6 7
12 13 13 13 11 11 12 14 13 10 11 13 13 13 12 12 12 11 9 8 7 7 7 7 6 6 5 4 4 3 3 3 3 3 3 4 4 4 5 5 5 5 5 5 5 6 6 7 7
15 15 15 15 13 11 12 14 13 11 12 13 13 12 12 13 12 11 10 9 8 9 9 8 7 7 7 6 5 4 4 4 4 4 4 4 4 5 5 6 6 6 7 7 7 7 8 9 9
16 16 16 17 15 13 13 14 12 13 14 14 14 13 13 12 12 12 11 11 12 11 10 10 9 9 9 8 7 6 6 7 6 6 6 6 6 6 7 7 7 7 8 8 8 8 9 9 10
17 17 17 18 18 17 16 16 15 15 15 15 15 14 14 13 13 13 13 14 14 13 11 11 11 10 10 11 10 9 8 9 9 9 9 9 9 9 9 9 9 9 9 9 9 9 10 11 11
18 18 20 21 21 21 20 18 17 17 16 16 16 17 16 14 14 14 14 15 14 13 12 12 12 12 12 13 13 12 12 11 11 11 12 11 11 11 11 11 11 11 11 11 11 12 12 12 13
20 20 21 22 22 22 22 20 18 18 17 17 17 18 17 16 16 16 16 16 17 16 15 14 15 15 15 16 16 16 16 16 14 13 14 14 14 14 14 13 13 13 13 13 14 14 14 14 14
21 21 22 24 23 23 24 21 20 20 19 19 19 19 19 19 19 18 19 19 19 19 18 17 17 17 18 18 18 18 18 18 18 17 16 15 15 16 16 16 15 15 15 15 16 16 16 16 16
Wind_Direction
83 78 73 70 69 67 66 64 61 59 59 59 60 60 59 60 61 71 71 76 76 78 79 81 80 90 97 100 103 107 110 112 114 117 117 117 118 120 120 119 120 118 117 115 117 118 115 114 117
81 77 72 68 66 63 62 62 59 58 56 56 57 60 62 59 64 69 69 75 77 77 77 80 84 93 99 103 104 106 106 109 114 117 119 120 123 122 121 121 119 120 120 116 112 116 115 114 117
79 75 71 64 59 59 60 59 57 57 56 54 54 56 59 62 67 70 72 76 79 77 78 81 83 87 95 100 102 104 104 106 112 118 121 120 122 124 123 122 122 122 120 119 117 118 118 117 118
77 71 67 61 58 59 59 58 57 56 55 55 54 55 58 64 64 68 75 76 80 80 81 84 83 84 92 98 97 101 105 108 107 114 123 124 128 129 128 125 124 121 120 120 121 117 116 115 113
75 73 69 61 60 59 58 56 55 55 54 54 54 55 57 61 64 66 71 78 81 81 81 83 83 82 86 92 95 96 103 106 107 109 117 124 127 128 128 128 125 122 119 120 121 116 113 111 110
78 75 67 58 56 58 56 54 54 52 52 54 53 53 56 58 63 66 71 75 79 81 79 78 77 77 80 84 86 90 93 100 104 109 115 120 123 125 128 131 129 126 121 117 120 122 118 117 115
84 72 63 54 53 55 54 54 54 51 50 52 54 52 53 57 62 65 67 69 75 78 76 75 75 74 75 78 80 87 89 97 100 103 112 121 125 123 127 131 129 127 125 117 117 122 118 118 120
76 69 61 54 51 50 52 48 50 50 48 50 52 53 52 54 59 63 68 69 72 72 73 75 76 74 72 72 76 83 88 95 97 102 108 122 129 128 124 129 131 127 123 121 121 122 117 109 118
70 62 57 52 45 45 47 43 46 46 46 46 48 49 49 52 55 58 62 66 68 68 69 70 71 71 69 68 70 78 85 90 91 103 117 126 129 129 129 134 142 138 133 128 127 119 115 109 113
66 61 53 47 42 38 42 40 42 38 40 42 44 45 46 48 51 55 60 65 66 65 65 66 67 68 68 68 66 72 80 86 89 96 112 124 130 131 133 135 140 143 137 132 127 120 116 117 122
65 59 48 45 46 39 37 39 41 36 33 36 39 40 44 49 50 57 59 61 63 63 64 64 65 64 65 66 65 69 77 84 86 90 109 128 135 135 137 140 139 141 139 135 131 130 131 128 125
68 58 53 49 46 44 39 33 33 34 32 31 32 37 43 47 50 57 59 58 59 60 62 62 61 61 60 60 61 70 79 85 86 93 111 126 132 130 134 141 145 145 144 148 154 157 152 146 152
80 66 53 46 40 39 36 29 27 27 28 25 27 34 40 44 46 48 51 53 55 57 58 57 56 56 56 54 52 63 72 83 88 92 109 122 129 132 133 144 141 150 157 159 160 159 164 190 213
90 74 57 49 39 34 27 25 21 21 24 24 28 30 34 38 40 40 41 43 49 50 51 50 53 51 52 50 50 54 63 74 89 99 108 115 117 126 125 131 134 146 160 171 181 204 230 245 245
82 74 68 47 31 23 18 14 14 16 20 21 24 24 27 30 34 34 33 35 42 44 44 45 47 46 48 48 48 48 53 65 85 95 100 114 121 117 119 129 130 140 168 193 208 231 239 239 255
84 90 71 56 33 14 6 4 8 8 8 13 16 17 18 18 21 22 24 29 34 36 38 38 39 42 43 45 50 48 52 59 71 84 89 100 117 123 122 121 138 156 167 205 229 247 259 263 264
105 89 76 56 32 10 2 358 360 2 1 4 9 8 6 4 7 7 12 20 27 28 31 31 33 36 39 42 47 49 51 58 63 73 80 89 103 111 115 113 133 150 188 227 234 248 266 266 268
159 104 355 333 338 347 348 349 351 349 349 355 358 2 1 359 355 356 7 12 17 19 23 26 30 35 38 42 45 52 57 61 63 65 74 85 93 95 102 91 95 81 57 25 269 285 280 280 279
226 249 279 292 307 320 332 334 336 337 336 342 350 352 348 348 349 344 352 360 7 17 21 25 26 28 35 41 44 51 60 62 62 62 60 69 72 72 75 69 65 62 44 18 333 302 302 302 306
238 246 262 272 287 301 308 314 320 323 323 336 342 346 343 343 343 343 345 354 340 1 6 12 14 17 24 34 39 43 50 58 65 65 61 62 60 55 48 41 16 2 343 325 310 299 300 294 300
244 245 263 277 273 279 287 296 303 313 318 327 334 337 340 341 339 343 346 348 348 347 346 352 357 356 2 18 32 41 42 40 50 53 54 50 44 42 36 36 19 7 0 349 343 324 303 307 308
238 235 247 266 267 277 279 288 299 305 311 313 320 327 327 331 330 332 329 329 331 332 334 336 334 333 338 344 359 14 25 28 32 32 25 23 19 16 10 7 357 349 331 329 337 338 336 334 330
241 234 245 251 257 267 275 280 289 299 314 311 313 320 322 324 322 320 318 315 314 312 314 322 325 319 319 323 331 344 343 349 360 6 3 356 350 351 352 1 355 336 327 329 328 328 320 324 321
243 241 243 251 254 262 272 275 279 293 307 305 309 314 319 320 318 320 313 310 302 297 300 310 314 309 305 303 307 315 311 314 321 327 337 340 335 331 336 339 338 327 318 320 321 322 316 315 316
248 249 248 250 251 261 267 266 274 289 294 295 298 303 310 313 312 317 312 306 295 285 288 294 295 296 297 292 288 296 295 289 295 298 306 309 306 307 313 315 320 319 312 309 308 309 306 309 312
252 253 254 256 257 260 262 265 273 281 281 285 291 295 298 304 302 298 297 295 292 283 281 285 288 287 286 284 274 281 288 285 283 286 290 292 294 297 301 304 305 308 312 310 304 300 301 304 306
253 253 259 261 261 261 260 263 266 273 278 283 287 289 294 297 296 296 298 301 299 290 287 287 284 279 278 282 280 280 277 278 278 281 285 286 287 288 290 295 299 302 305 309 308 303 300 300 300
251 253 256 258 261 262 260 262 268 269 271 277 283 288 288 293 293 295 297 297 298 295 291 289 281 276 277 279 279 281 279 277 280 277 280 282 281 282 282 283 291 296 298 301 302 297 295 298 299
250 250 255 260 262 264 263 261 264 267 268 272 279 283 285 289 287 286 288 289 289 290 290 286 283 278 277 278 278 277 282 279 275 275 274 275 275 278 280 280 285 289 291 293 294 295 292 292 294
250 250 253 256 259 259 262 262 264 267 267 271 275 279 283 286 284 283 287 286 286 287 287 285 283 279 276 276 276 276 277 277 273 272 272 272 274 277 279 278 280 283 286 288 289 291 292 293 293
Height
5904 5903 5903 5904 5904 5903 5901 5901 5900 5900 5899 5898 5897 5896 5896 5896 5896 5897 5894 5892 5892 5892 5891 5891 5891 5890 5891 5891 5892 5892 5892 5893 5893 5893 5894 5894 5895 5895 5896 5896 5897 5897 5898 5899 5899 5899 5899 5900 5900
5906 5906 5906 5906 5904 5904 5903 5903 5903 5902 5901 5900 5899 5898 5897 5897 5896 5895 5894 5894 5893 5893 5893 5892 5892 5892 5892 5892 5893 5893 5893 5894 5894 5894 5895 5895 5896 5897 5897 5898 5898 5899 5899 5900 5900 5900 5901 5901 5901
5908 5908 5909 5907 5906 5906 5906 5905 5905 5904 5903 5902 5901 5900 5899 5898 5897 5896 5896 5895 5895 5894 5894 5894 5893 5893 5893 5893 5894 5894 5895 5895 5895 5896 5896 5896 5897 5898 5898 5899 5899 5900 5900 5901 5901 5902 5902 5902 5902
5911 5911 5910 5909 5909 5908 5908 5907 5907 5906 5905 5904 5903 5902 5901 5900 5898 5898 5897 5896 5896 5896 5895 5895 5895 5895 5895 5895 5895 5895 5896 5896 5896 5897 5897 5897 5898 5899 5899 5900 5901 5901 5901 5902 5902 5902 5903 5903 5903
5913 5913 5912 5911 5911 5911 5910 5910 5909 5909 5908 5906 5905 5904 5903 5902 5900 5899 5899 5898 5898 5897 5897 5897 5896 5896 5896 5897 5897 5897 5897 5897 5897 5897 5898 5898 5899 5900 5900 5901 5901 5902 5903 5903 5903 5903 5904 5904 5904
5916 5914 5914 5913 5913 5913 5913 5912 5912 5911 5910 5909 5908 5907 5905 5904 5903 5902 5901 5900 5899 5899 5899 5899 5898 5898 5898 5898 5898 5898 5898 5898 5898 5898 5899 5899 5900 5900 5901 5902 5902 5903 5903 5904 5904 5904 5905 5905 5905
5918 5916 5915 5915 5915 5915 5916 5914 5914 5913 5912 5911 5910 5909 5907 5906 5905 5904 5903 5902 5901 5901 5901 5900 5900 5900 5899 5899 5899 5899 5899 5899 5899 5899 5899 5900 5900 5901 5901 5902 5903 5904 5904 5904 5905 5905 5906 5906 5906
5919 5919 5918 5918 5918 5918 5918 5918 5916 5915 5914 5913 5912 5911 5910 5909 5907 5906 5905 5904 5903 5903 5902 5902 5902 5901 5901 5901 5900 5900 5900 5900 5900 5900 5900 5900 5901 5901 5902 5903 5904 5904 5905 5905 5905 5906 5906 5906 5906
5921 5921 5920 5921 5921 5920 5920 5920 5919 5917 5916 5915 5914 5913 5912 5910 5909 5908 5907 5906 5906 5905 5904 5904 5903 5903 5902 5902 5902 5901 5901 5901 5901 5900 5900 5901 5901 5902 5903 5903 5904 5905 5905 5906 5906 5906 5906 5906 5906
5922 5922 5923 5924 5923 5922 5921 5921 5920 5919 5918 5917 5916 5914 5913 5912 5911 5910 5909 5908 5907 5907 5906 5905 5905 5904 5904 5903 5903 5902 5902 5901 5901 5901 5901 5901 5902 5902 5903 5904 5904 5905 5906 5906 5906 5907 5907 5907 5906
5923 5924 5924 5924 5924 5924 5923 5922 5921 5921 5920 5919 5917 5916 5915 5914 5913 5911 5911 5910 5909 5908 5908 5907 5906 5906 5905 5904 5903 5903 5902 5901 5901 5901 5901 5901 5902 5902 5903 5904 5905 5905 5906 5906 5907 5907 5907 5907 5907
5925 5926 5926 5926 5925 5925 5924 5924 5923 5922 5922 5921 5919 5917 5917 5916 5915 5914 5912 5911 5911 5910 5909 5908 5907 5907 5906 5905 5904 5903 5902 5902 5901 5900 5900 5901 5902 5903 5903 5904 5905 5906 5906 5907 5907 5907 5907 5907 5907
5926 5927 5927 5927 5926 5926 5926 5925 5924 5923 5923 5922 5920 5919 5917 5917 5916 5915 5914 5913 5912 5911 5910 5910 5909 5908 5907 5906 5904 5903 5903 5902 5901 5900 5900 5901 5902 5903 5904 5904 5905 5906 5906 5907 5907 5907 5907 5907 5907
5927 5927 5928 5927 5927 5927 5927 5926 5926 5924 5923 5923 5921 5920 5919 5918 5917 5916 5916 5914 5913 5912 5911 5910 5910 5908 5907 5906 5905 5904 5903 5902 5902 5901 5902 5902 5903 5904 5905 5905 5905 5905 5906 5906 5906 5906 5906 5906 5906
5929 5929 5929 5928 5928 5928 5928 5928 5926 5925 5924 5923 5923 5921 5920 5920 5919 5918 5917 5916 5914 5913 5912 5911 5910 5909 5908 5907 5906 5904 5903 5902 5902 5902 5903 5903 5904 5904 5905 5905 5905 5905 5905 5906 5906 5906 5906 5906 5905
5929 5929 5929 5929 5929 5929 5930 5928 5927 5925 5924 5924 5923 5922 5921 5921 5920 5919 5918 5916 5915 5914 5913 5912 5911 5910 5909 5907 5906 5905 5904 5903 5903 5903 5903 5904 5904 5905 5905 5905 5905 5905 5905 5905 5905 5905 5905 5905 5905
5929 5929 5928 5929 5928 5929 5929 5928 5927 5926 5925 5924 5923 5923 5922 5921 5920 5919 5918 5917 5916 5914 5913 5912 5911 5910 5909 5908 5907 5906 5904 5904 5904 5904 5904 5904 5904 5905 5905 5905 5905 5905 5904 5904 5904 5904 5904 5904 5904
5929 5928 5928 5928 5928 5928 5928 5927 5927 5926 5925 5924 5923 5923 5922 5921 5920 5918 5917 5916 5915 5915 5914 5913 5912 5911 5910 5909 5908 5907 5906 5905 5905 5905 5904 5904 5904 5905 5905 5905 5905 5904 5904 5903 5903 5903 5903 5903 5902
5927 5928 5927 5927 5927 5927 5927 5926 5926 5926 5924 5924 5923 5922 5921 5920 5919 5917 5916 5916 5914 5914 5914 5913 5912 5911 5910 5909 5908 5907 5907 5906 5906 5905 5905 5905 5904 5904 5904 5904 5904 5904 5903 5903 5903 5902 5902 5901 5901
5925 5926 5926 5926 5926 5926 5925 5925 5925 5925 5924 5923 5922 5922 5920 5919 5918 5917 5916 5915 5913 5913 5913 5913 5912 5911 5910 5909 5908 5908 5907 5906 5906 5906 5905 5905 5905 5904 5904 5904 5903 5903 5903 5902 5901 5901 5900 5900 5900
5923 5924 5924 5925 5924 5924 5924 5924 5924 5923 5923 5922 5922 5921 5920 5918 5917 5916 5916 5915 5914 5913 5913 5912 5911 5911 5910 5909 5908 5908 5907 5906 5906 5906 5905 5905 5904 5904 5904 5903 5903 5902 5901 5901 5900 5900 5899 5899 5898
5921 5922 5922 5922 5922 5921 5922 5921 5921 5921 5921 5921 5920 5920 5918 5917 5916 5915 5915 5914 5914 5913 5912 5911 5911 5910 5909 5909 5908 5907 5907 5906 5906 5906 5905 5905 5904 5903 5903 5902 5901 5901 5900 5900 5899 5899 5898 5897 5897
5918 5920 5920 5919 5919 5919 5919 5919 5919 5918 5918 5918 5918 5917 5916 5915 5914 5913 5913 5913 5912 5912 5911 5910 5910 5909 5908 5908 5907 5907 5906 5906 5906 5905 5905 5904 5904 5903 5902 5901 5900 5899 5899 5899 5898 5897 5897 5896 5895
5915 5916 5917 5917 5917 5917 5917 5916 5916 5916 5916 5915 5915 5915 5913 5912 5911 5910 5910 5910 5910 5910 5910 5909 5909 5908 5907 5907 5906 5906 5905 5905 5905 5904 5903 5903 5903 5902 5901 5900 5899 5898 5898 5897 5897 5896 5895 5894 5893
5913 5913 5914 5914 5914 5915 5914 5913 5914 5914 5913 5912 5912 5912 5911 5910 5908 5907 5908 5908 5908 5907 5907 5907 5906 5906 5906 5905 5905 5905 5904 5903 5903 5903 5902 5902 5901 5901 5900 5899 5898 5897 5896 5896 5895 5894 5893 5892 5891
5909 5910 5910 5910 5910 5911 5910 5909 5911 5910 5909 5908 5908 5908 5908 5908 5907 5905 5905 5905 5905 5904 5904 5904 5904 5904 5904 5903 5903 5902 5902 5901 5901 5901 5900 5900 5899 5899 5898 5898 5897 5896 5895 5893 5892 5892 5891 5890 5889
5904 5905 5906 5906 5905 5906 5906 5906 5906 5905 5905 5904 5904 5904 5904 5904 5903 5902 5902 5902 5902 5901 5901 5901 5901 5901 5901 5900 5899 5899 5899 5899 5899 5898 5898 5898 5897 5896 5896 5895 5894 5893 5892 5891 5890 5889 5888 5886 5885
5900 5901 5901 5901 5900 5900 5901 5901 5901 5901 5901 5901 5901 5900 5900 5899 5900 5899 5899 5899 5899 5898 5898 5898 5897 5897 5897 5897 5897 5896 5896 5895 5895 5895 5895 5894 5894 5893 5892 5892 5891 5890 5889 5888 5886 5885 5884 5883 5881
5895 5895 5895 5895 5895 5895 5895 5898 5897 5897 5897 5897 5897 5896 5896 5896 5896 5896 5896 5896 5895 5895 5894 5893 5893 5893 5893 5893 5893 5893 5892 5891 5890 5890 5890 5890 5890 5889 5888 5888 5887 5886 5885 5884 5883 5881 5880 5879 5878
5888 5889 5889 5890 5889 5889 5889 5893 5892 5892 5892 5891 5892 5891 5891 5891 5891 5890 5891 5891 5891 5890 5889 5889 5889 5889 5889 5888 5888 5887 5887 5886 5885 5884 5884 5884 5884 5884 5884 5883 5882 5882 5881 5879 5878 5877 5876 5874 5873